Location: �perlecques
(50.8057°N, 2.1521°E)
Time: 13:15:08
(UTC+00:00)

VELOX 1 - Pass Details

Date: 03 October 2021
Orbit: 626 x 643 km, 98.3° (Epoch: 16 October)

Event Time Altitude Azimuth Distance (km) Brightness Sun altitude
Exits shadow 02:26:41 31° 65° (ENE) 1,101 ? -31.7°
Maximum altitude 02:26:43 31° 64° (ENE) 1,101 ? -31.7°
Drops below altitude 10° 02:30:35 10° 3° (N) 2,016 ? -31.2°
Sets 02:32:57 0° 353° (N) 2,928 ? -31.0°
